[[{"header":{"parameterUnit":"m.s-1","parameterCategory":1,"la1":30.2991,"la2":30.254,"lo1":-89.0895,"lo2":-89.0444,"dy":0.0017,"dx":0.0017,"nx":28,"ny":28,"refTime":"2024-08-21T21:00:00:Z","depth":0,"parameterNumber":2,"parameterNumberName":"U-component_of_WINDS"},"data":[0,0,0,0,0,0,0,0,0,0,0,0,0,0,0,0,0,0,0,0,0,0,0,0,0,0,0,0,0,0,0,0,0,0,0,0,0,0,0,0,0,0,0,0,0,0,0,0,0,0,0,0,0,0,0,0,0,0,-5.4342,-5.4341,0,-5.429,-5.429,-5.4289,-5.4122,-5.4118,-5.4114,-5.4111,-5.4062,-5.4064,-5.4066,0,0,0,0,0,0,0,0,0,0,0,0,0,-5.4299,-5.4301,-5.4342,-5.4341,-5.434,-5.4291,-5.429,-5.4289,-5.4122,-5.4118,-5.4113,-5.4109,-5.4061,-5.4063,-5.4066,0,0,0,0,0,0,0,0,0,0,0,0,0,-5.429,-5.4301,-5.4342,-5.4251,-5.4242,-5.4291,-5.429,-5.4289,-5.4123,-5.4118,-5.4112,-5.4107,-5.406,-5.4063,-5.4066,-5.4199,0,0,-5.4076,-5.4078,0,0,0,0,0,0,0,0,-5.4291,-5.4292,-5.4265,-5.4257,-5.4248,-5.4207,-5.4256,-5.4259,-5.4125,-5.4169,-5.4111,-5.4104,-5.4115,-5.4113,-5.4116,-5.4197,-5.4195,-5.4077,-5.4079,-5.408,-5.4081,0,0,0,0,0,0,0,-5.4291,-5.4293,-5.4321,-5.4265,-5.4254,-5.4214,-5.4207,-5.4256,-5.4174,-5.4164,-5.4152,-5.4148,-5.4109,-5.4113,-5.4113,-5.4194,-5.4077,-5.4079,-5.4081,-5.4083,-5.4383,-5.4389,0,0,0,0,0,0,-5.4304,-5.4294,-5.4323,-5.432,-5.4256,-5.422,-5.4211,-5.4226,-5.4173,-5.4159,-5.4153,-5.4141,-5.411,-5.411,-5.4111,-5.4264,-5.408,-5.4083,-5.4085,-5.4377,-5.4385,-5.4391,0,0,0,0,0,0,-5.4304,-5.4309,-5.4325,-5.4304,-5.4303,-5.4226,-5.4244,-5.4228,-5.4231,-5.4164,-5.4149,-5.4172,-5.4106,-5.4106,-5.4179,-5.426,-5.4085,-5.4088,-5.437,-5.4379,-5.4388,-5.4571,0,0,0,0,0,0,-5.4304,-5.4309,-5.4358,-5.4306,-5.4305,-5.4393,-5.4249,-5.4231,-5.4237,-5.4221,-5.4178,-5.4166,-5.4101,-5.4175,-5.4182,-5.4261,-5.409,-5.4362,-5.4374,-5.4385,-5.4558,-5.4586,-5.4609,0,0,0,0,0,-5.4303,-5.4412,-5.4361,-5.4366,-5.4364,-5.4398,-5.4397,-5.432,-5.4245,-5.4294,-5.4251,-5.4167,-5.425,-5.4183,-5.419,-5.4272,-5.4357,-5.4371,-5.4384,-5.4546,-5.458,-5.4609,0,0,0,0,0,0,-5.4476,-5.4403,-5.4347,-5.4442,-5.4428,-5.4369,-5.4429,-5.4358,-5.4365,-5.4349,-5.4254,-5.4246,-5.4332,-5.4309,-5.4236,-5.4399,-5.429,-5.4305,-5.4411,-5.4442,-5.4468,-5.4472,-5.4093,0,0,0,0,0,-5.4526,-5.4558,-5.4493,-5.4584,-5.4579,-5.4506,-5.4518,-5.446,-5.4441,-5.4434,-5.4396,-5.4383,-5.4405,-5.4422,-5.4439,-5.4553,-5.4543,-5.4613,-5.4639,-5.4661,-5.4676,-5.4736,-5.4767,-5.4436,-5.4435,-5.4435,0,0,-5.4628,-5.4592,-5.4619,-5.4618,-5.46,-5.4637,-5.4502,-5.4547,-5.4574,-5.4441,-5.4507,-5.448,-5.4458,-5.4552,-5.4592,-5.4535,-5.4765,-5.4678,-5.4696,-5.4699,-5.4753,-5.4785,-5.4813,-5.4445,-5.4443,-5.4442,0,0,-5.4834,-5.4809,-5.4883,-5.4868,-5.4842,-5.4792,-5.481,-5.4764,-5.474,-5.4804,-5.4706,-5.4738,-5.4779,-5.4768,-5.4768,-5.4972,-5.4896,-5.498,-5.5115,-5.5176,-5.5202,-5.5224,-5.5299,-5.5327,-5.4995,-5.4995,-5.4996,0,-5.4964,-5.5016,-5.493,-5.4982,-5.4985,-5.4866,-5.4941,-5.4931,-5.4913,-5.4919,-5.4855,-5.4905,-5.4882,-5.4973,-5.5023,-5.5027,-5.5046,-5.4985,-5.5205,-5.5227,-5.5247,-5.5317,-5.5345,-5.5006,-5.5005,-5.5004,-5.5003,0,-5.5179,-5.5216,-5.5279,-5.5264,-5.5274,-5.5338,-5.5263,-5.5284,-5.5226,-5.5184,-5.5253,-5.5221,-5.523,-5.5247,-5.5191,-5.5331,-5.5297,-5.5221,-5.511,-5.529,-5.5354,-5.538,-5.5021,-5.5017,-5.5014,-5.5011,0,0,-5.5492,-5.5429,-5.5454,-5.5447,-5.541,-5.5438,-5.5497,-5.5505,-5.5527,-5.5518,-5.5567,-5.5605,-5.5534,-5.5535,-5.5476,-5.5529,-5.5695,-5.5445,-5.5444,-5.5494,-5.585,-5.5909,-5.5941,-5.5644,-5.5649,-5.5652,-5.5852,0,-5.5688,-5.5784,-5.571,-5.582,-5.5854,-5.5743,-5.5794,-5.5779,-5.5741,-5.5766,-5.5725,-5.5755,-5.5658,-5.5658,-5.5705,-5.5665,-5.5765,-5.5649,-5.569,-5.5692,-5.57,-5.5974,-5.6036,-5.6226,-5.5877,-5.5881,-5.5884,0,-5.593,-5.5933,-5.6046,-5.6004,-5.6016,-5.6063,-5.6066,-5.6091,-5.6072,-5.6041,-5.6043,-5.597,-5.6027,-5.5917,-5.5995,-5.5918,-5.593,-5.5913,-5.5919,-5.592,-5.58,-5.5985,-5.6284,-5.6314,-5.5922,-5.5919,-5.5917,0,-5.6149,-5.6181,-5.6253,-5.625,-5.6202,-5.6239,-5.6221,-5.6195,-5.6206,-5.6209,-5.6216,-5.6226,-5.6232,-5.6242,-5.6175,-5.6102,-5.6263,-5.6147,-5.6241,-5.6243,-5.628,-5.6279,-5.6588,-5.6287,-5.6286,-5.6286,-5.6285,0,-5.6377,-5.6451,-5.6351,-5.6396,-5.6477,-5.6391,-5.6474,-5.6444,-5.6423,-5.6462,-5.6366,-5.6404,-5.6313,-5.6342,-5.629,-5.6364,-5.6367,-5.6345,-5.6331,-5.6354,-5.6358,-5.6362,-5.6348,-5.6293,-5.6291,-5.629,-5.6289,0,-5.6635,-5.6571,-5.6643,-5.6592,-5.6581,-5.6643,-5.66,-5.664,-5.6597,-5.6647,-5.6654,-5.6587,-5.6617,-5.6551,-5.6571,-5.6536,-5.6642,-5.6605,-5.6648,-5.6638,-5.6736,-5.6728,-5.7059,-5.7099,-5.6772,-5.6775,-5.6778,0,-5.6785,-5.684,-5.6795,-5.6813,-5.6801,-5.6832,-5.6842,-5.6761,-5.6776,-5.6759,-5.6802,-5.6824,-5.6837,-5.689,-5.6844,-5.686,-5.6825,-5.6939,-5.6826,-5.6849,-5.6828,-5.6827,-5.6832,-5.6963,-5.6967,-5.697,-5.6973,0,-5.7059,-5.7025,-5.7043,-5.7052,-5.7067,-5.707,-5.7066,-5.7087,-5.7,-5.7022,-5.7051,-5.7062,-5.7083,-5.7107,-5.7112,-5.7095,-5.7022,-5.7009,-5.7032,-5.7057,-5.708,-5.7071,-5.6713,-5.7002,-5.6999,-5.6997,-5.6995,-5.6994,-5.7268,-5.7312,-5.7288,-5.7313,-5.7301,-5.73,-5.7336,-5.7298,-5.732,-5.7331,-5.7281,-5.7322,-5.7303,-5.7303,-5.7294,-5.7326,-5.7274,-5.7306,-5.7315,-5.7325,-5.7341,-5.7075,-5.7326,-5.7325,-5.7324,-5.7324,-5.7323,0,-5.7538,-5.7518,-5.7541,-5.7538,-5.7559,-5.7486,-5.7478,-5.75,-5.7537,-5.7525,-5.754,-5.7575,-5.7598,-5.7554,-5.7571,-5.7605,-5.7572,-5.7612,-5.7609,-5.7607,-5.7386,-5.7365,-5.7639,-5.7639,-5.7639,-5.7639,-5.7639,-5.7639,-5.7681,-5.7753,-5.7716,-5.7782,-5.776,-5.7799,-5.7802,-5.7801,-5.7791,-5.7834,-5.7853,-5.7824,-5.78,-5.7814,-5.7833,-5.7819,-5.783,-5.7884,-5.7859,-5.7653,-5.7622,-5.7593,-5.7573,-5.7886,-5.7887,-5.8077,-5.8079,-5.8081]},{"header":{"parameterUnit":"m.s-1","parameterCategory":1,"la1":30.2991,"la2":30.254,"lo1":-89.0895,"lo2":-89.0444,"dy":0.0017,"dx":0.0017,"nx":28,"ny":28,"refTime":"2024-08-21T21:00:00:Z","depth":0,"parameterNumber":3,"parameterNumberName":"V-component_of_WINDS"},"data":[0,0,0,0,0,0,0,0,0,0,0,0,0,0,0,0,0,0,0,0,0,0,0,0,0,0,0,0,0,0,0,0,0,0,0,0,0,0,0,0,0,0,0,0,0,0,0,0,0,0,0,0,0,0,0,0,0,0,-0.4803,-0.4803,0,-0.4822,-0.4822,-0.4822,-0.4797,-0.4796,-0.4795,-0.4794,-0.4818,-0.482,-0.4821,0,0,0,0,0,0,0,0,0,0,0,0,0,-0.4747,-0.4748,-0.4803,-0.4803,-0.4803,-0.4822,-0.4822,-0.4822,-0.4797,-0.4796,-0.4795,-0.4794,-0.4818,-0.4819,-0.4821,0,0,0,0,0,0,0,0,0,0,0,0,0,-0.4769,-0.4749,-0.4803,-0.4793,-0.4792,-0.4821,-0.4822,-0.4822,-0.4797,-0.4796,-0.4794,-0.4793,-0.4817,-0.4819,-0.4821,-0.4863,0,0,-0.4828,-0.4829,0,0,0,0,0,0,0,0,-0.4768,-0.4771,-0.4794,-0.4793,-0.4793,-0.4805,-0.4811,-0.4836,-0.4798,-0.4795,-0.4794,-0.4792,-0.4815,-0.4818,-0.4824,-0.4864,-0.4865,-0.4828,-0.483,-0.4831,-0.4831,0,0,0,0,0,0,0,-0.4767,-0.477,-0.481,-0.4794,-0.4793,-0.4788,-0.479,-0.4816,-0.4813,-0.4795,-0.4794,-0.4796,-0.4815,-0.4822,-0.4825,-0.4866,-0.4828,-0.483,-0.4832,-0.4833,-0.494,-0.4941,0,0,0,0,0,0,-0.4766,-0.4769,-0.481,-0.4811,-0.4776,-0.479,-0.4792,-0.4803,-0.4813,-0.4813,-0.4797,-0.4795,-0.4819,-0.4822,-0.4825,-0.4875,-0.4831,-0.4833,-0.4834,-0.4938,-0.494,-0.4942,0,0,0,0,0,0,-0.4765,-0.477,-0.4809,-0.4789,-0.4794,-0.4793,-0.4805,-0.4804,-0.4811,-0.4814,-0.4814,-0.4805,-0.4818,-0.4822,-0.4853,-0.4875,-0.4834,-0.4836,-0.4937,-0.4939,-0.4941,-0.4974,0,0,0,0,0,0,-0.4763,-0.4769,-0.4785,-0.479,-0.4795,-0.4836,-0.4806,-0.4805,-0.4815,-0.4812,-0.4821,-0.4822,-0.4817,-0.485,-0.4856,-0.4878,-0.4838,-0.4935,-0.4938,-0.494,-0.4971,-0.4977,-0.4983,0,0,0,0,0,-0.4761,-0.4795,-0.4786,-0.4791,-0.4814,-0.4837,-0.484,-0.4833,-0.4817,-0.4832,-0.4834,-0.4821,-0.4871,-0.4854,-0.486,-0.4883,-0.4933,-0.4937,-0.494,-0.4969,-0.4976,-0.4983,0,0,0,0,0,0,-0.4794,-0.4795,-0.4785,-0.4821,-0.4829,-0.4833,-0.4853,-0.4842,-0.4856,-0.4853,-0.4844,-0.4847,-0.488,-0.4884,-0.4864,-0.4923,-0.49,-0.4904,-0.492,-0.4927,-0.4932,-0.4932,-0.484,0,0,0,0,0,-0.4805,-0.4822,-0.4823,-0.4854,-0.4859,-0.4855,-0.4865,-0.4858,-0.4867,-0.4871,-0.4874,-0.4884,-0.4902,-0.4914,-0.4931,-0.4971,-0.4973,-0.4989,-0.4995,-0.5,-0.5005,-0.5026,-0.5034,-0.4953,-0.4953,-0.4953,0,0,-0.4829,-0.4832,-0.4844,-0.4861,-0.4866,-0.4886,-0.4858,-0.488,-0.4894,-0.4874,-0.4904,-0.4906,-0.4917,-0.4952,-0.4968,-0.4957,-0.5027,-0.5004,-0.5008,-0.501,-0.503,-0.5038,-0.5045,-0.4955,-0.4955,-0.4954,0,0,-0.4883,-0.4886,-0.4912,-0.4917,-0.4925,-0.4922,-0.4928,-0.4933,-0.4934,-0.4962,-0.4947,-0.4965,-0.4996,-0.5003,-0.5012,-0.5065,-0.5054,-0.507,-0.5101,-0.5122,-0.5129,-0.5134,-0.5154,-0.5162,-0.5075,-0.5075,-0.5075,0,-0.4912,-0.4939,-0.4928,-0.495,-0.4958,-0.4938,-0.4965,-0.4971,-0.4985,-0.4991,-0.4977,-0.5015,-0.5021,-0.5058,-0.507,-0.5077,-0.5085,-0.5071,-0.5128,-0.5134,-0.5139,-0.5158,-0.5166,-0.5077,-0.5077,-0.5076,-0.5076,0,-0.4975,-0.4994,-0.5015,-0.5026,-0.5036,-0.5061,-0.5054,-0.5066,-0.5057,-0.5056,-0.5085,-0.509,-0.5108,-0.5115,-0.5109,-0.5151,-0.5144,-0.5129,-0.5106,-0.5149,-0.5167,-0.5174,-0.508,-0.5079,-0.5079,-0.5078,0,0,-0.5054,-0.5056,-0.5064,-0.5068,-0.5074,-0.5089,-0.5112,-0.5127,-0.5137,-0.5146,-0.5167,-0.5192,-0.5177,-0.5187,-0.518,-0.5198,-0.5241,-0.5181,-0.5181,-0.5193,-0.5289,-0.5302,-0.531,-0.5232,-0.5234,-0.5235,-0.5289,0,-0.5108,-0.5147,-0.5136,-0.5176,-0.5194,-0.5173,-0.5194,-0.52,-0.5198,-0.5213,-0.5212,-0.523,-0.521,-0.5215,-0.5231,-0.5232,-0.526,-0.5228,-0.5253,-0.5254,-0.5253,-0.5319,-0.5333,-0.5384,-0.5295,-0.5296,-0.5297,0,-0.5178,-0.5187,-0.5228,-0.5229,-0.5236,-0.5255,-0.5267,-0.5281,-0.5287,-0.5285,-0.5293,-0.5282,-0.5306,-0.528,-0.5313,-0.5291,-0.53,-0.5302,-0.5304,-0.5308,-0.528,-0.5327,-0.54,-0.5408,-0.5308,-0.5307,-0.5306,0,-0.5232,-0.5255,-0.5282,-0.5287,-0.5289,-0.5302,-0.5304,-0.5308,-0.5317,-0.5328,-0.5334,-0.5347,-0.5355,-0.5366,-0.536,-0.5341,-0.5394,-0.5368,-0.5394,-0.5394,-0.5409,-0.5408,-0.5486,-0.5411,-0.5411,-0.5411,-0.5411,0,-0.5295,-0.5322,-0.5307,-0.5324,-0.5353,-0.5339,-0.5369,-0.5368,-0.5371,-0.5389,-0.5371,-0.5388,-0.5377,-0.5393,-0.5388,-0.5416,-0.542,-0.5419,-0.5418,-0.5422,-0.5423,-0.543,-0.5427,-0.5413,-0.5412,-0.5412,-0.5411,0,-0.5363,-0.5353,-0.5382,-0.538,-0.538,-0.5402,-0.5401,-0.5417,-0.5412,-0.5434,-0.5439,-0.5433,-0.545,-0.5444,-0.5463,-0.5459,-0.5496,-0.5489,-0.5494,-0.5493,-0.552,-0.5518,-0.5607,-0.5619,-0.5535,-0.5535,-0.5536,0,-0.5405,-0.5424,-0.5424,-0.5433,-0.5435,-0.5451,-0.5459,-0.5446,-0.5456,-0.5463,-0.5478,-0.5494,-0.5506,-0.5535,-0.5533,-0.5548,-0.5542,-0.5572,-0.5545,-0.5548,-0.5545,-0.5544,-0.5547,-0.5579,-0.558,-0.5581,-0.5581,0,-0.5481,-0.5475,-0.5487,-0.5497,-0.5507,-0.5515,-0.5521,-0.553,-0.5517,-0.5529,-0.5546,-0.5555,-0.5573,-0.5589,-0.5601,-0.5604,-0.5591,-0.5589,-0.5596,-0.5602,-0.5604,-0.5605,-0.5511,-0.5588,-0.5587,-0.5587,-0.5586,-0.5586,-0.5538,-0.5554,-0.5556,-0.557,-0.5572,-0.5578,-0.5593,-0.5589,-0.5602,-0.5615,-0.5606,-0.5626,-0.5631,-0.5645,-0.5649,-0.5665,-0.5654,-0.5664,-0.5667,-0.567,-0.5674,-0.5599,-0.5667,-0.5667,-0.5667,-0.5667,-0.5667,0,-0.5615,-0.5614,-0.5626,-0.5635,-0.5646,-0.5629,-0.5635,-0.5645,-0.5662,-0.5666,-0.5678,-0.5697,-0.5711,-0.5709,-0.5723,-0.5736,-0.5731,-0.574,-0.5741,-0.5742,-0.5683,-0.5676,-0.5745,-0.5745,-0.5745,-0.5745,-0.5745,-0.5745,-0.5656,-0.5682,-0.5676,-0.5703,-0.5702,-0.572,-0.5725,-0.573,-0.5733,-0.5755,-0.5766,-0.5764,-0.5766,-0.5779,-0.5792,-0.5791,-0.5797,-0.581,-0.5807,-0.5753,-0.5746,-0.5738,-0.5732,-0.5811,-0.5811,-0.5864,-0.5865,-0.5865]}]]